EW7336 Weather Reports


Display with metric or nautical units.
time (UTC)temp
F
wind
direction
speed
MPH
gust
MPH
rain 1hr
in
rain 24hr
in
rain mn
in
humidity
%
barometer
mb
20260504190045 64 206 2.0 6.0 0.02 0.02 0.02 79 1007.6
20260504184541 63 217 2.0 5.0 0.01 0.01 0.01 78 1007.8
20260504183037 64 211 3.0 12.0 0.01 0.01 0.01 76 1007.1
20260504181538 64 204 3.0 10.0 0.00 0.00 0.00 73 1008.3
20260504180035 65 263 4.0 10.0 0.00 0.00 0.00 69 1008.2
20260504174538 66 183 5.0 19.0 0.00 0.00 0.00 66 1008.0
20260504173034 67 207 7.0 16.0 0.00 0.00 0.00 67 1007.8
20260504171541 67 227 8.0 14.0 0.00 0.00 0.00 65 1007.7
20260504081559 52 196 0.0 5.0 0.00 0.00 0.00 71 1009.7
20260504050024 52 191 1.0 3.0 0.00 0.00 0.00 72 1011.7
20260504044525 52 186 1.0 3.0 0.00 0.00 0.00 71 1011.7
20260504043021 52 187 0.0 3.0 0.00 0.00 0.00 71 1011.8
20260504041517 52 183 1.0 3.0 0.00 0.00 0.00 71 1011.9
20260504040017 53 183 0.0 4.0 0.00 0.00 0.00 70 1012.1
20260504034513 52 182 1.0 3.0 0.00 0.00 0.00 71 1012.3
20260504033013 53 182 0.0 2.0 0.00 0.00 0.00 70 1012.4
20260504031514 53 182 0.0 3.0 0.00 0.00 0.00 69 1012.5
20260504030013 54 182 0.0 3.0 0.00 0.00 0.00 67 1012.6
20260504024511 54 182 1.0 4.0 0.00 0.00 0.00 66 1012.6
20260504023010 54 216 1.0 4.0 0.00 0.00 0.00 67 1012.7
20260504021509 54 217 1.0 3.0 0.00 0.00 0.00 67 1012.6
20260504020015 54 217 1.0 3.0 0.00 0.00 0.00 67 1012.4
20260504014509 54 217 0.0 2.0 0.00 0.00 0.00 66 1012.4
20260504013009 55 218 1.0 4.0 0.00 0.00 0.00 65 1012.4
20260504011507 55 221 2.0 5.0 0.00 0.00 0.00 63 1012.4
20260504010006 56 191 2.0 6.0 0.00 0.00 0.00 62 1012.3
20260504004506 56 201 3.0 9.0 0.00 0.00 0.00 61 1012.1
20260504003003 56 225 5.0 9.0 0.00 0.00 0.00 63 1012.2
20260504001503 56 194 3.0 7.0 0.00 0.00 0.00 63 1012.5
20260503234559 58 198 2.0 6.0 0.00 0.00 0.00 55 1012.5
20260503233057 58 180 2.0 8.0 0.00 0.00 0.00 52 1012.7
20260503231555 59 167 5.0 10.0 0.00 0.00 0.00 49 1012.8
20260503230100 60 186 4.0 10.0 0.00 0.00 0.00 48 1012.8
20260503224551 60 227 4.0 10.0 0.00 0.00 0.00 49 1013.0
20260503223050 60 205 4.0 9.0 0.00 0.00 0.00 50 1013.1
20260503221548 60 182 3.0 9.0 0.00 0.00 0.00 48 1013.1
20260503220051 61 217 4.0 10.0 0.00 0.00 0.00 47 1013.5
20260503214544 61 200 4.0 11.0 0.00 0.00 0.00 47 1013.6
20260503213045 61 184 5.0 14.0 0.00 0.00 0.00 44 1014.2
20260503211539 62 216 7.0 12.0 0.00 0.00 0.00 42 1014.5
20260503210038 61 234 4.0 10.0 0.00 0.00 0.00 45 1014.7
20260503204534 62 198 3.0 10.0 0.00 0.00 0.00 45 1014.8
20260503203033 61 218 5.0 13.0 0.00 0.00 0.00 44 1015.2
20260503201528 61 231 7.0 12.0 0.00 0.00 0.00 43 1015.6
20260503200027 61 245 7.0 10.0 0.00 0.00 0.00 44 1015.6
20260503194525 61 204 8.0 12.0 0.00 0.00 0.00 42 1015.6
20260503193023 61 200 8.0 16.0 0.00 0.00 0.00 42 1016.0
20260503191521 60 221 3.0 11.0 0.00 0.00 0.00 47 1016.3